DW9064 Weather Reports


time (UTC)temp
C
wind
direction
speed
KPH
gust
KPH
rain 1hr
cm
rain 24hr
cm
rain mn
cm
humidity
%
barometer
mb
20260506213903 25 211 11.3 24.1 0.00 0.00 0.00 22 1024.5
20260506212102 25 181 6.4 25.7 0.00 0.00 0.00 21 1024.6
20260506211203 26 166 16.1 25.7 0.00 0.00 0.00 20 1024.7
20260506210303 26 178 14.5 22.5 0.00 0.00 0.00 21 1024.8
20260506205402 25 191 6.4 25.7 0.00 0.00 0.00 21 1024.9
20260506204502 25 191 6.4 20.9 0.00 0.00 0.00 21 1025.1
20260506203602 25 187 11.3 30.6 0.00 0.00 0.00 21 1025.2
20260506202702 25 187 12.9 30.6 0.00 0.00 0.00 20 1025.4
20260506200903 24 183 12.9 20.9 0.00 0.00 0.00 21 1025.6
20260506200003 24 183 11.3 20.9 0.00 0.00 0.00 23 1025.6
20260506195102 23 170 11.3 20.9 0.00 0.00 0.00 22 1025.8
20260506194203 23 174 11.3 20.9 0.00 0.00 0.00 21 1025.9
20260506193302 23 179 12.9 19.3 0.00 0.00 0.00 21 1026.0
20260506192402 23 181 6.4 19.3 0.00 0.00 0.00 20 1026.2
20260506191502 23 172 12.9 19.3 0.00 0.00 0.00 23 1026.4
20260506190602 22 182 12.9 20.9 0.00 0.00 0.00 24 1026.7
20260506185702 22 172 11.3 19.3 0.00 0.00 0.00 24 1026.7
20260506184802 21 168 11.3 20.9 0.00 0.00 0.00 24 1026.9
20260506183902 21 171 11.3 16.1 0.00 0.00 0.00 25 1027.1
20260506183003 21 166 6.4 11.3 0.00 0.00 0.00 26 1027.3
20260506182102 20 142 3.2 12.9 0.00 0.00 0.00 26 1027.4
20260506181202 20 163 6.4 12.9 0.00 0.00 0.00 26 1027.7
20260506180302 19 162 3.2 9.7 0.00 0.00 0.00 25 1027.8
20260506175402 19 124 1.6 9.7 0.00 0.00 0.00 28 1028.0
20260506174502 19 117 4.8 11.3 0.00 0.00 0.00 29 1028.0
20260506173602 18 108 4.8 12.9 0.00 0.00 0.00 29 1028.1
20260506171802 18 113 6.4 14.5 0.00 0.00 0.00 32 1028.6
20260506170902 18 106 3.2 14.5 0.00 0.00 0.00 32 1028.8
20260506165102 16 127 6.4 11.3 0.00 0.00 0.00 41 1028.9
20260506164202 15 128 4.8 12.9 0.00 0.00 0.00 42 1029.0
20260506163302 15 107 6.4 12.9 0.00 0.00 0.00 41 1029.2
20260506161502 15 94 3.2 12.9 0.00 0.00 0.00 45 1029.5
20260506160602 14 108 4.8 12.9 0.00 0.00 0.00 44 1029.5
20260506154802 13 81 3.2 6.4 0.00 0.00 0.00 50 1029.8
20260506153902 13 96 4.8 12.9 0.00 0.00 0.00 51 1029.9
20260506153002 13 92 3.2 11.3 0.00 0.00 0.00 52 1029.9
20260506152102 12 87 3.2 8.0 0.00 0.00 0.00 58 1030.0
20260506151202 11 93 4.8 12.9 0.00 0.00 0.00 58 1029.9
20260506150304 11 87 3.2 12.9 0.00 0.00 0.00 61 1029.9
20260506144502 10 86 3.2 11.3 0.00 0.00 0.00 63 1030.0
20260506143602 10 80 6.4 11.3 0.00 0.00 0.00 64 1030.1
20260506142702 10 82 6.4 12.9 0.00 0.00 0.00 65 1030.0
20260506140902 9 84 3.2 6.4 0.00 0.00 0.00 71 1030.2
20260506140001 8 74 1.6 6.4 0.00 0.00 0.00 74 1030.2
20260506135102 7 67 3.2 6.4 0.00 0.00 0.00 76 1030.0
20260506134202 6 63 1.6 6.4 0.00 0.00 0.00 78 1030.0
20260506132402 5 46 3.2 8.0 0.00 0.00 0.00 79 1029.9
20260506131502 5 357 3.2 6.4 0.00 0.00 0.00 78 1029.7
20260506130601 5 349 3.2 8.0 0.00 0.00 0.00 77 1029.8
20260506125702 5 5 3.2 8.0 0.00 0.00 0.00 77 1029.7
20260506124801 5 356 4.8 9.7 0.00 0.00 0.00 78 1029.5
20260506123002 5 344 4.8 9.7 0.00 0.00 0.00 77 1029.4
20260506121201 5 351 6.4 12.9 0.00 0.00 0.00 75 1029.3
20260506120301 5 344 6.4 11.3 0.00 0.00 0.00 75 1029.2
20260506115401 5 7 6.4 11.3 0.00 0.00 0.00 75 1029.3
20260506113601 6 358 6.4 8.0 0.00 0.00 0.00 74 1029.1
20260506112701 6 8 3.2 9.7 0.00 0.00 0.00 73 1029.2
20260506111801 6 345 6.4 11.3 0.00 0.00 0.00 73 1029.1
20260506110902 6 357 6.4 11.3 0.00 0.00 0.00 73 1029.0
20260506110001 6 356 6.4 11.3 0.00 0.00 0.00 72 1029.0
20260506105101 6 347 6.4 12.9 0.00 0.00 0.00 72 1028.8
20260506104201 6 356 6.4 9.7 0.00 0.00 0.00 71 1028.8
20260506103301 6 357 4.8 9.7 0.00 0.00 0.00 70 1028.7
20260506102401 6 3 3.2 9.7 0.00 0.00 0.00 71 1028.6
20260506101501 6 356 6.4 12.9 0.00 0.00 0.00 72 1028.6
20260506100601 6 348 8.0 12.9 0.00 0.00 0.00 72 1028.5
20260506095701 6 340 8.0 12.9 0.00 0.00 0.00 73 1028.4
20260506094801 6 335 6.4 11.3 0.00 0.00 0.00 73 1028.4
20260506093001 7 344 6.4 11.3 0.00 0.00 0.00 70 1028.4
20260506092101 7 352 8.0 12.9 0.00 0.00 0.00 70 1028.4
20260506090301 7 346 6.4 12.9 0.00 0.00 0.00 70 1028.2
20260506084501 8 344 6.4 12.9 0.00 0.00 0.00 69 1028.2
20260506083601 7 339 6.4 12.9 0.00 0.00 0.00 70 1028.2
20260506082701 7 331 8.0 12.9 0.00 0.00 0.00 70 1028.1
20260506081801 8 331 6.4 12.9 0.00 0.00 0.00 70 1028.1
20260506080901 8 337 4.8 12.9 0.00 0.00 0.00 71 1027.8
20260506073301 8 316 8.0 12.9 0.00 0.00 0.00 76 1027.7
20260506072401 8 317 9.7 12.9 0.00 0.00 0.00 76 1027.6
20260506071501 8 325 8.0 11.3 0.00 0.00 0.00 75 1027.4
20260506070601 8 332 8.0 12.9 0.00 0.00 0.00 74 1027.4
20260506062101 9 321 9.7 14.5 0.00 0.00 0.00 77 1026.9
20260506061201 9 318 12.9 14.5 0.00 0.00 0.00 77 1026.9
20260506060301 9 324 8.0 12.9 0.00 0.00 0.00 77 1026.7
20260506050901 10 318 11.3 14.5 0.00 0.00 0.00 69 1026.2
20260506045101 10 325 12.9 16.1 0.00 0.00 0.00 71 1025.9
20260506044201 10 314 11.3 14.5 0.00 0.00 0.00 71 1025.9
20260506043301 11 314 11.3 14.5 0.00 0.00 0.00 69 1025.7
20260506042401 11 318 12.9 14.5 0.00 0.00 0.00 68 1025.6
20260506041500 11 315 11.3 14.5 0.00 0.00 0.00 68 1025.5
20260506040600 11 316 12.9 16.1 0.00 0.00 0.00 65 1025.4
20260506035700 11 314 12.9 14.5 0.00 0.00 0.00 67 1025.2
20260506034800 12 318 12.9 17.7 0.00 0.00 0.00 65 1025.0
20260506033900 12 314 12.9 16.1 0.00 0.00 0.00 64 1025.0
20260506033000 12 314 12.9 17.7 0.00 0.00 0.00 63 1024.9
20260506031200 13 316 12.9 16.1 0.00 0.00 0.00 63 1024.7
20260506030301 13 316 12.9 16.1 0.00 0.00 0.00 60 1024.5
20260506024500 14 320 14.5 17.7 0.00 0.00 0.00 58 1024.2
20260506023600 14 315 12.9 17.7 0.00 0.00 0.00 57 1024.2
20260506022700 15 316 14.5 17.7 0.00 0.00 0.00 56 1024.2
20260506021800 15 315 14.5 17.7 0.00 0.00 0.00 54 1024.0
20260506015100 15 316 14.5 17.7 0.00 0.00 0.00 55 1024.0
20260506014200 16 318 14.5 17.7 0.00 0.00 0.00 53 1023.9
20260506013300 16 319 14.5 17.7 0.00 0.00 0.00 53 1023.9
20260506012400 16 318 14.5 16.1 0.00 0.00 0.00 52 1023.9
20260506011500 17 314 12.9 16.1 0.00 0.00 0.00 50 1023.9
20260506010600 17 316 12.9 16.1 0.00 0.00 0.00 45 1023.9
20260506005700 18 316 11.3 12.9 0.00 0.00 0.00 41 1024.1
20260506004800 21 314 9.7 12.9 0.00 0.00 0.00 35 1024.1
20260506003900 22 326 8.0 11.3 0.00 0.00 0.00 30 1024.0
20260506003000 25 334 6.4 9.7 0.00 0.00 0.00 25 1024.1
20260506002100 26 358 3.2 8.0 0.00 0.00 0.00 20 1024.2
20260506001200 27 359 3.2 6.4 0.00 0.00 0.00 15 1024.4
20260506000302 27 57 1.6 6.4 0.00 0.00 0.00 10 1024.4
20260505235400 26 115 3.2 6.4 0.00 0.00 0.00 10 1024.6
20260505234500 27 109 3.2 8.0 0.00 0.00 0.00 10 1024.6
20260505233600 27 130 1.6 6.4 0.00 0.00 0.00 10 1024.8
20260505232700 27 165 3.2 11.3 0.00 0.00 0.00 10 1024.9
20260505231800 27 122 3.2 9.7 0.00 0.00 0.00 10 1024.9
20260505230000 27 74 3.2 11.3 0.00 0.00 0.00 10 1025.1
20260505225100 27 72 4.8 11.3 0.00 0.00 0.00 10 1025.1
20260505224200 26 132 1.6 9.7 0.00 0.00 0.00 10 1025.4
20260505223300 26 148 6.4 11.3 0.00 0.00 0.00 10 1025.5
20260505221500 26 116 4.8 11.3 0.00 0.00 0.00 10 1025.6
20260505220600 26 163 3.2 9.7 0.00 0.00 0.00 11 1025.8
20260505215700 25 184 3.2 12.9 0.00 0.00 0.00 10 1025.9